TimeEST,TemperatureF,Dew PointF,Humidity,Sea Level PressureIn,VisibilityMPH,Wind Direction,Wind SpeedMPH,Gust SpeedMPH,PrecipitationIn,Events,Conditions,WindDirDegrees,DateUTC
12:53 AM,32.0,28.0,85,30.44,8.0,Calm,Calm,-,N/A,,Clear,0,2012-12-31 05:53:00
1:53 AM,30.9,28.0,89,30.45,7.0,Calm,Calm,-,N/A,,Clear,0,2012-12-31 06:53:00
2:53 AM,30.9,28.0,89,30.43,6.0,Calm,Calm,-,N/A,,Clear,0,2012-12-31 07:53:00
3:53 AM,30.9,27.0,85,30.43,7.0,Calm,Calm,-,N/A,,Clear,0,2012-12-31 08:53:00
4:53 AM,30.9,27.0,85,30.41,6.0,Calm,Calm,-,N/A,,Clear,0,2012-12-31 09:53:00
5:53 AM,32.0,28.0,85,30.40,7.0,Calm,Calm,-,N/A,,Clear,0,2012-12-31 10:53:00
6:53 AM,32.0,28.9,88,30.42,8.0,Calm,Calm,-,N/A,,Clear,0,2012-12-31 11:53:00
7:53 AM,35.1,30.9,85,30.43,9.0,Calm,Calm,-,N/A,,Clear,0,2012-12-31 12:53:00
8:53 AM,43.0,34.0,71,30.41,10.0,ESE,4.6,-,N/A,,Scattered Clouds,110,2012-12-31 13:53:00
9:53 AM,50.0,35.1,57,30.42,10.0,East,8.1,-,N/A,,Scattered Clouds,100,2012-12-31 14:53:00
10:53 AM,55.9,39.0,53,30.41,10.0,SE,6.9,-,0.01,,Clear,140,2012-12-31 15:53:00
11:53 AM,61.0,43.0,52,30.38,10.0,SE,6.9,-,N/A,,Clear,130,2012-12-31 16:53:00
12:53 PM,64.9,46.0,50,30.33,10.0,South,6.9,-,N/A,,Clear,170,2012-12-31 17:53:00
1:53 PM,66.9,48.0,51,30.30,10.0,SSE,10.4,-,N/A,,Scattered Clouds,160,2012-12-31 18:53:00
2:53 PM,68.0,48.0,49,30.28,10.0,South,8.1,16.1,N/A,,Scattered Clouds,190,2012-12-31 19:53:00
3:53 PM,66.9,48.0,51,30.28,10.0,SSW,4.6,-,N/A,,Scattered Clouds,200,2012-12-31 20:53:00
4:53 PM,66.0,48.9,54,30.27,10.0,Calm,Calm,-,N/A,,Partly Cloudy,0,2012-12-31 21:53:00
5:53 PM,57.9,48.9,72,30.27,10.0,Calm,Calm,-,N/A,,Scattered Clouds,0,2012-12-31 22:53:00
6:53 PM,54.0,48.0,80,30.28,10.0,Calm,Calm,-,N/A,,Scattered Clouds,0,2012-12-31 23:53:00
7:53 PM,52.0,46.0,80,30.28,10.0,Calm,Calm,-,0.01,,Clear,0,2013-01-01 00:53:00
8:53 PM,50.0,45.0,83,30.28,5.0,Calm,Calm,-,N/A,,Haze,0,2013-01-01 01:53:00
9:53 PM,50.0,45.0,83,30.29,7.0,Calm,Calm,-,N/A,,Mostly Cloudy,0,2013-01-01 02:53:00
10:53 PM,51.1,46.9,86,30.28,6.0,Calm,Calm,-,N/A,,Mostly Cloudy,0,2013-01-01 03:53:00
11:53 PM,50.0,45.0,83,30.26,5.0,Calm,Calm,-,N/A,,Haze,0,2013-01-01 04:53:00